Skip Page Navigation
NASA JPL Caltech
NASA Logo - Jet Propulsion Laboratory + View the NASA Portal
+ Center for Near-Earth Object Studies
JPL Home Earth Solar System Stars & Galaxies Technology
JPL Solar System Dynamics
BODIES ORBITS EPHEMERIDES TOOLS PHYSICAL DATA DISCOVERY FAQ SITE MAP
IMPORTANT: The SSD Announcement email list is now available. Major changes are coming in the near future, including possible hostname and/or URL changes. To be notified of such changes, subscribe to this email list.

Please visit this page for more details.


JPL Small-Body Database Browser
Search: [ help ]  
85146 (1981 EF33)
Classification: Main-belt Asteroid          SPK-ID: 2085146
Ephemeris | Orbit Diagram | Orbital Elements | Mission Design | Physical Parameters | Discovery Circumstances | Close-Approach Data ]

[ show orbit diagram ]
Orbital Elements at Epoch 2459000.5 (2020-May-31.0) TDB
Reference: JPL 13 (heliocentric ecliptic J2000)
 Element Value Uncertainty (1-sigma)   Units 
e .1759358637899734 6.0539e-08  
a 2.424879102922217 1.1751e-08 au
q 1.998255903363341 1.4533e-07 au
i 6.786617597531712 7.0861e-06 deg
node 209.7489136107926 3.6418e-05 deg
peri 22.72867313084312 4.135e-05 deg
M 96.75533917278784 1.5595e-05 deg
tp 2458629.814155245870
(2019-May-26.31415525)
6.0091e-05 TDB
period 1379.220053925649
3.78
1.0026e-05
2.745e-08
d
yr
n .2610170864144112 1.8974e-09 deg/d
Q 2.851502302481093 1.3819e-08 au
  Orbit Determination Parameters
   # obs. used (total)      338  
   data-arc span      14055 days (38.48 yr)  
   first obs. used      1981-02-02  
   last obs. used      2019-07-28  
   planetary ephem.      DE431  
   SB-pert. ephem.      SB431-N16  
   condition code      0  
   norm. resid. RMS      .60031  
   source      ORB  
   producer      Otto Matic  
   solution date      2020-Feb-23 20:27:08  

Additional Information
 Earth MOID = .989783 au 
 Jupiter MOID = 2.14176 au 
 T_jup = 3.480 
[ show covariance matrix ]

Ephemeris | Orbit Diagram | Orbital Elements | Mission Design | Physical Parameters | Discovery Circumstances | Close-Approach Data ]

Physical Parameter Table
Parameter Symbol Value Units Sigma Reference Notes
absolute magnitude H 16.7   n/a MPO474738  

85146 (1981 EF33)          Discovered 1981-Mar-01 by Bus, S. J. at Siding Spring
Reference: 20040830/Numbers.arcLast Updated: 2004-09-06

[ hide close-approach data ]
Close-Approach Data   ...sorted by Date/Time (TDB)
Date/Time (TDB) Time Uncertainty
(days_HH:MM)
Body Nominal Distance (au) Minimum Distance (au) Maximum Distance (au) V-relative (km/s) V-infinity (km/s) JD (TDB) Time Uncertainty (minutes) Semi-major axis (km) Semi-minor axis (km) range-LOV angle (deg) N-sigma BP Orbit Ref. Reference Modified
1927-Nov-30 01:00 < 00:01 Juno 0.0461220795740137 0.0461065789839171 0.0461375892924609 8.9058601397861 8.90586011016772 2425214.541915702 0.916604484497492 1287.03954984154 83.4511877161312 -53.2453354154397 66307.0615132509 T 13 CATAB v2.0f-lin.ifort 2020-Feb-23 20:27:22 2020-Feb-23 20:27
1984-Aug-20 10:48 < 00:01 Juno 0.0218901942375801 0.0218879800711944 0.0218924090739805 8.77592410769237 8.77592404436324 2445932.949908880 0.305333736640993 312.240574499622 83.5470543487678 -76.1187154847288 38125.4658558692 T 13 CATAB v2.0f-lin.ifort 2020-Feb-23 20:27:22 2020-Feb-23 20:27
Ephemeris | Orbit Diagram | Orbital Elements | Mission Design | Physical Parameters | Discovery Circumstances | Close-Approach Data ]
ABOUT SSD CREDITS/AWARDS PRIVACY/COPYRIGHT GLOSSARY LINKS
FirstGov 2020-Feb-26 21:09 UT
(server date/time)  
NASA Home Page
Site Manager:   Ryan S. Park
Webmaster  Alan B. Chamberlin